Kandersteg, метеограме

Kandersteg: време по сату
Субота, 18 Jануара
Време Падавине Температура Осећа се Притисак Влажност Ветар
12:00 0.01 мм -3.8° -3.8° 618.000 мм.ж.с 85% 1 м/с, СЗ
13:00 0.01 мм -3.2° -3.3° 618.000 мм.ж.с 82% 1 м/с, СЗ
14:00 0.01 мм -3.7° -3.8° 618.000 мм.ж.с 83% 1 м/с, СЗ
15:00 0.01 мм -4.1° -4.2° 618.000 мм.ж.с 85% 1 м/с, СЗ
16:00 0.01 мм -4.6° -4.7° 617.000 мм.ж.с 86% 1 м/с, С
17:00 0 мм -6.1° -6.1° 617.000 мм.ж.с 86% 1 м/с, С
18:00 0 мм -7.6° -7.6° 617.000 мм.ж.с 85% 1 м/с, СИ
19:00 0 мм -9° -9° 617.000 мм.ж.с 85% 1 м/с, И
20:00 0 мм -9.3° -9.3° 616.000 мм.ж.с 78% 1 м/с, И
21:00 0 мм -9.7° -9.7° 616.000 мм.ж.с 70% 1 м/с, И
22:00 0 мм -10° -10.1° 616.000 мм.ж.с 63% 1 м/с, И
23:00 0 мм -10.1° -10.2° 616.000 мм.ж.с 62% 1 м/с, И
Недеља, 19 Jануара
Време Падавине Температура Осећа се Притисак Влажност Ветар
00:00 0 мм -10.2° -10.3° 616.000 мм.ж.с 60% 1 м/с, И
01:00 0 мм -10.3° -10.4° 616.000 мм.ж.с 58% 1 м/с, И
02:00 0 мм -10.4° -10.5° 616.000 мм.ж.с 59% 1 м/с, И
03:00 0 мм -10.5° -10.6° 616.000 мм.ж.с 60% 1 м/с, СИ
04:00 0 мм -10.6° -10.6° 616.000 мм.ж.с 61% 1 м/с, СИ
05:00 0 мм -10.5° -10.6° 617.000 мм.ж.с 65% 1 м/с, СИ
06:00 0 мм -10.5° -10.5° 617.000 мм.ж.с 70% 1 м/с, СИ
07:00 0 мм -10.5° -10.5° 617.000 мм.ж.с 75% 1 м/с, СИ
08:00 0 мм -9.8° -9.8° 618.000 мм.ж.с 77% 2 м/с, СИ
09:00 0 мм -9° -9° 618.000 мм.ж.с 79% 2 м/с, СИ
10:00 0 мм -8.3° -8.3° 619.000 мм.ж.с 82% 2 м/с, СИ
11:00 0.03 мм -7.7° -7.7° 619.000 мм.ж.с 80% 2 м/с, СИ
12:00 0.03 мм -7° -7.1° 619.000 мм.ж.с 78% 2 м/с, СИ
13:00 0.03 мм -6.4° -6.5° 620.000 мм.ж.с 77% 3 м/с, СИ
14:00 0.03 мм -6.7° -6.8° 620.000 мм.ж.с 79% 2 м/с, СИ
15:00 0.03 мм -7° -7.1° 620.000 мм.ж.с 81% 2 м/с, СИ
16:00 0.03 мм -7.3° -7.3° 620.000 мм.ж.с 84% 2 м/с, СИ
17:00 0.03 мм -8.5° -8.4° 620.000 мм.ж.с 85% 2 м/с, СИ
18:00 0.03 мм -9.6° -9.5° 620.000 мм.ж.с 87% 2 м/с, СИ
19:00 0.03 мм -10.8° -10.6° 619.000 мм.ж.с 89% 2 м/с, СИ
20:00 0.02 мм -10.9° -10.8° 620.000 мм.ж.с 83% 2 м/с, СИ
21:00 0.02 мм -11° -10.9° 620.000 мм.ж.с 78% 2 м/с, И
22:00 0.02 мм -11.1° -11° 621.000 мм.ж.с 73% 2 м/с, И
23:00 0.01 мм -11.2° -11.2° 621.000 мм.ж.с 69% 2 м/с, И
Понедељак, 20 Jануара
Време Падавине Температура Осећа се Притисак Влажност Ветар
00:00 0.01 мм -11.3° -11.4° 621.000 мм.ж.с 65% 2 м/с, И
01:00 0.01 мм -11.5° -11.5° 621.000 мм.ж.с 62% 2 м/с, И
02:00 0 мм -11.6° -11.6° 621.000 мм.ж.с 60% 2 м/с, ЈИ
03:00 0 мм -11.8° -11.8° 621.000 мм.ж.с 59% 2 м/с, ЈИ
04:00 0 мм -11.9° -11.9° 621.000 мм.ж.с 58% 2 м/с, ЈИ
05:00 0 мм -11.8° -11.8° 621.000 мм.ж.с 60% 2 м/с, ЈИ
06:00 0 мм -11.6° -11.6° 622.000 мм.ж.с 62% 2 м/с, ЈИ
07:00 0 мм -11.5° -11.5° 622.000 мм.ж.с 64% 2 м/с, ЈИ
08:00 0 мм -10.2° -10.2° 623.000 мм.ж.с 65% 2 м/с, ЈИ
09:00 0 мм -8.8° -8.9° 624.000 мм.ж.с 66% 2 м/с, ЈИ
10:00 0 мм -7.5° -7.7° 624.000 мм.ж.с 67% 3 м/с, ЈИ
11:00 0 мм -6° -6.3° 625.000 мм.ж.с 64% 3 м/с, ЈИ

Такође

Meteograms hourly weather Мапе времена Преглед времена
Meteograms hourly weather Мапе времена Преглед времена
 
Време у Србији:
О проjекту
© meteoprog.rs 2003-2020.
Meteoprog.ua - погода в Украине 0.0430
sitemap